Regional Weather Roundup
Issued by NWS

Home | Current Version | Previous Version | Text Only | Print | Product List | Glossary Off
Versions: 1 2 3 4 5 6 7 8 9 10 11 12 13 14 15 16 17 18 19 20 21 22 23 24 25 26 27 28 29 30 31 32 33 34 35 36 37 38 39 40 41 42 43 44 45 46 47 48 49 50

000
ASUS43 KLOT 240303
RWRIL

ILLINOIS REGIONAL WEATHER ROUNDUP
NATIONAL WEATHER SERVICE CHICAGO/ROMEOVILLE IL
1000 PM CDT TUE AUG 23 2016

NOTE: "FAIR" INDICATES FEW OR NO CLOUDS BELOW 12,000 FEET WITH NO
SIGNIFICANT WEATHER AND/OR OBSTRUCTIONS TO VISIBILITY.

* THESE STATIONS ARE NOT UNDER NWS QUALITY CONTROL. THEY ALSO MAY NOT
  REPORT WEATHER SUCH AS PRECIPITATION OR FOG.

ILZ001-002-007-009-015-016-024-240400-
NORTHWEST ILLINOIS

CITY           SKY/WX    TMP DP  RH WIND       PRES   REMARKS
MOLINE         CLOUDY    74  68  81 S10G17    30.03R
STERLING*      CLOUDY    73  67  81 VRB3      30.06R
SAVANNA*       CLOUDY    73  67  81 S14       30.03S
$$

ILZ003-004-008-010-011-017-018-240400-
NORTH CENTRAL ILLINOIS

CITY           SKY/WX    TMP DP  RH WIND       PRES   REMARKS
ROCKFORD       CLOUDY    73  66  78 S9        30.07S
FREEPORT*      CLOUDY    72  65  80 S9        30.07S
ROCHELLE*      CLOUDY    72  66  83 S12       30.08S
$$

ILZ005-006-012>014-019>023-240400-
NORTHEAST ILLINOIS

CITY           SKY/WX    TMP DP  RH WIND       PRES   REMARKS
CHICAGO-OHARE  MOCLDY    74  62  66 S13       30.10S
CHICAGO-MIDWAY MOCLDY    76  61  59 S10       30.10F
AURORA         CLOUDY    74  65  73 SE10      30.09F
LANSING*       MOCLDY    71  62  71 S7        30.12F
JOLIET*        CLOUDY    74  66  76 S6        30.10F
WAUKEGAN       PTCLDY    73  61  65 S8        30.09S
DUPAGE AIRPORT CLOUDY    74  63  68 S10       30.09S
KANKAKEE*      CLOUDY    71  65  81 SE6       30.12F
WHEELING       CLOUDY    75  61  61 S12       30.11S
MORRIS*        CLOUDY    73  66  78 S7        30.08F
ROMEOVILLE*    CLOUDY    72  62  70 S9        30.10F
NORTHERLY ISL    N/A     73  60  63 S9          N/A
$$

LMZ740>746-240400-
SOUTHERN LAKE MICHIGAN

STATION/POSITION SKY/WX   TEMP    WIND        PRES    VSBY  WAVE
                          AIR SEA DIR/SP/G                  HT/PER
                          (F)     (DEG/KT/KT) (MB)    (MI)  (FT/S)
SOUTHERN BUOY              76 75  170/ 16/ 19 1019.2          3/ 5
WILMETTE HARBOR            73 72  190/ 12/ 14   N/A           2/ 3
HARRISON CRIB              74     170/ 17/ 18   N/A
BURNHAM HARBOR             73     160/  6/ 11   N/A
CALUMET HARBOR             76     150/  8/ 14 1019.5F
BURNS HARBOR               74     170/  7/ 14 1021.0S
MICHIGAN CITY              74     140/  7/  9   N/A
MICHIGAN CITY 6N           73 73  180/ 10/ 12   N/A           1/ 2
ST. JOSEPH                 74 75  150/ 10/ 12 1020.6R         1/ 3
$$

ILZ025>027-034>036-040-047-049-050-058-095>099-240400-
WEST-CENTRAL ILLINOIS

CITY           SKY/WX    TMP DP  RH WIND       PRES   REMARKS
QUINCY         CLOUDY    73  72  96 S15       30.04S
GALESBURG*     CLOUDY    71  67  88 S9        30.05R
MACOMB*        CLOUDY    72  69  91 S9        30.07S
JACKSONVILLE*  CLEAR     70  67  90 SE8       30.08S
PITTSFIELD*    CLEAR     71  69  95 SE7       30.08S
$$

ILZ028>032-037-038-041>044-048-051>054-059>061-240400-
CENTRAL ILLINOIS

CITY           SKY/WX    TMP DP  RH WIND       PRES   REMARKS
PONTIAC        MOCLDY    72  69  90 SE6       30.10F
BLOOMINGTON    PTCLDY    70  66  87 S13       30.11F
DECATUR        PTCLDY    72  65  78 S8        30.12S
PEORIA         CLOUDY    73  67  81 S15G22    30.08S
LACON*         CLOUDY    71  65  80 S7        30.06F
LINCOLN*       CLEAR     71  68  89 S7        30.10R
SPRINGFIELD    CLEAR     73  67  81 S9        30.09S
TAYLORVILLE    MOCLDY    70  67  90 S9        30.11S
$$

ILZ033-039-045-046-055>057-062-063-240400-
EAST-CENTRAL ILLINOIS

CITY           SKY/WX    TMP DP  RH WIND       PRES   REMARKS
CHAMPAIGN      CLOUDY    69  66  90 SE7       30.13F
RANTOUL*       MOCLDY    71  67  87 SE6       30.13F
MATTOON        CLOUDY    71  65  81 SE6       30.14S
PARIS*         CLOUDY    68  66  93 CALM      30.16S
$$

ILZ079-100>102-240400-
SOUTHWEST ILLINOIS

CITY           SKY/WX    TMP DP  RH WIND       PRES   REMARKS
ALTON          PTCLDY    70  66  88 SE9       30.10F
BELLEVILLE     MOCLDY    72  71  97 CALM      30.10R
CAHOKIA*       MOCLDY    74  69  85 SE7       30.09S
SPARTA*        CLOUDY    74  72  95 SE5       30.12R
$$

ILZ064>066-069>071-074>076-080>082-084>086-088>090-092>094-240400-
SOUTH-CENTRAL ILLINOIS

CITY           SKY/WX    TMP DP  RH WIND       PRES   REMARKS
CARBONDALE     CLOUDY    74  71  91 S7        30.12S
EFFINGHAM*     CLOUDY    70  69  96 E5        30.16S
MARION         CLOUDY    75  72  88 SE5       30.13S
MT. VERNON     CLOUDY    73  64  73 E3        30.14S
CENTRALIA*     MOCLDY    73  70  91 E3        30.13R
SALEM*         MOCLDY    74  68  81 SE5       30.14R
$$

ILZ067-068-072-073-078-083-087-091-240400-
SOUTHEAST ILLINOIS

CITY           SKY/WX    TMP DP  RH WIND       PRES   REMARKS
LAWRENCEVILLE  PTCLDY    71  66  84 SE5       30.16S
FLORA*         CLOUDY    72  69  88 SE6       30.14S
FAIRFIELD*     CLOUDY    73  68  86 SE3       30.13F
HARRISBURG*    CLOUDY    73  72  96 SE6       30.14S
ROBINSON*      CLOUDY    69  65  86 SE5       30.16S
CARMI*         CLOUDY    72  69  91 SE5       30.14S
$$

ABBREVIATIONS USED IN REMARKS
   TC - TEMPERATURE IN CELSIUS
  WCI - WIND CHILL INDEX
   HX - HEAT INDEX
  VSB - VISIBILITY
$$





USA.gov is the U.S. government's official web portal to all federal, state and local government web resources and services.